Regional Weather Roundup
Issued by NWS

Home | Current Version | Previous Version | Graphics & Text | Print | Product List | Glossary On
Versions: 1 2 3 4 5 6 7 8 9 10 11 12 13 14 15 16 17 18 19 20 21 22 23 24 25 26 27 28 29 30 31 32 33 34 35 36 37 38 39 40 41 42 43 44 45 46 47 48 49 50
000
ASUS45 KPSR 300400
RWRAZ

ARIZONA HOURLY REGIONAL WEATHER ROUNDUP
NATIONAL WEATHER SERVICE PHOENIX AZ
900 PM MST MON JUN 29 2015

NOTE: FAIR INDICATES FEW OR NO CLOUDS BELOW 12,000 FEET WITH NO
SIGNIFICANT WEATHER AND/OR OBSTRUCTIONS TO VISIBILITY.

AZZ001>003-036-300500-
NORTHWEST ARIZONA

CITY           SKY/WX    TMP DP  RH WIND       PRES   REMARKS
KINGMAN        CLOUDY    82  57  42 N3        30.00S
$$

AZZ004>008-015-016-018-300500-
NORTH CENTRAL ARIZONA

CITY           SKY/WX    TMP DP  RH WIND       PRES   REMARKS
GRAND CANYON   CLOUDY    73  51  46 S9        30.29R
WILLIAMS       CLOUDY    64  54  68 S3        30.37F
PRESCOTT       CLOUDY    72  64  76 S10       30.17R THUNDER
FLAGSTAFF      NOT AVBL
PAYSON         CLOUDY    79  50  36 CALM      30.18S
PAGE           MOCLDY    93  43  17 SW8       30.01R
$$

AZZ009>014-017-300500-
NORTHEAST ARIZONA

CITY           SKY/WX    TMP DP  RH WIND       PRES   REMARKS
WINSLOW        NOT AVBL
SAINT JOHNS    CLOUDY    72  55  55 W6        30.22R
WINDOW ROCK    MOCLDY    72  47  40 S7        30.28R
$$

AZZ023-300500-
GREATER PHOENIX AREA

CITY           SKY/WX    TMP DP  RH WIND       PRES   REMARKS
PHOENIX        MOCLDY   103  56  21 W9        29.78R HX 102
DEER VALLEY    CLOUDY    93  58  30 NW8       29.83R
SCOTTSDALE     CLOUDY    95  59  30 N7        29.85R
MESA-GATEWAY   MOCLDY    97  59  28 MISG      29.83R
CHANDLER       MOCLDY   100  57  23 SW6       29.80R
$$

AZZ027-028-300500-
SOUTHWEST MARICOPA COUNTY AND PINAL COUNTY

CITY           SKY/WX    TMP DP  RH WIND       PRES   REMARKS
CASA GRANDE    MOCLDY    93  61  33 CALM      29.83R
$$

AZZ503-504-507>509-300500-
SOUTHEAST ARIZONA

CITY           SKY/WX    TMP DP  RH WIND       PRES   REMARKS
TUCSON         CLOUDY    87  63  44 S7        29.98F
DAVIS-MONTHAN  CLOUDY    86  63  45 SW3       29.97S
NOGALES        MOCLDY    75  59  57 CALM      30.08R
SAFFORD        MOCLDY    84  59  42 N6        29.93R
$$

AZZ020-021-025-026-031-300500-
SOUTHWEST ARIZONA

CITY           SKY/WX    TMP DP  RH WIND       PRES   REMARKS
YUMA           CLOUDY    97  65  34 SW8       29.77R
$$

CAZ031-033-041-043-047-048-061-300500-
SOUTHERN CALIFORNIA

CITY           SKY/WX    TMP DP  RH WIND       PRES   REMARKS
DOWNTOWN L.A.  PTCLDY    71  57  61 CALM      29.88R
L.A. AIRPORT   PTCLDY    68  58  70 W9        29.89R
SAN DIEGO      PTCLDY    70  62  76 NW3       29.91R
BURBANK        CLEAR     78  55  44 E10       29.89R
ONTARIO        PTCLDY    79  58  48 W9        29.90R
RIVERSIDE      CLEAR     80  57  45 W3        29.90R
PALM SPRINGS   CLEAR    101  60  25 CALM      29.77R HX 101
EL CENTRO NAS  PTCLDY    96  66  37 SE9       29.74R
IMPERIAL       CLEAR     99  65  32 SE10      29.71S HX 102
BLYTHE         MOCLDY   104  60  23 W10       29.75R HX 105
$$

NVZ020-UTZ003-300500-
SOUTHERN NEVADA-UTAH

CITY           SKY/WX    TMP DP  RH WIND       PRES   REMARKS
LAS VEGAS      NOT AVBL
SALT LAKE CITY MOCLDY    93  52  24 S12       29.99R
$$

NMZ009-TXZ055-300500-
NEW MEXICO-WEST TEXAS

CITY           SKY/WX    TMP DP  RH WIND       PRES   REMARKS
ALBUQUERQUE    MOCLDY    77  49  37 E25G33    30.17R
EL PASO        PTCLDY    86  48  26 NE6       30.03R
$$


........................KEY........................
SKY/WX - SKY CONDITION/WEATHER
TMP    - TEMPERATURE IN FAHRENHEIT
DP     - DEW POINT IN FAHRENHEIT
RH     - RELATIVE HUMIDITY IN PERCENT
WIND   - DIRECTION AND SPEED IN MILES PER HOUR (MPH)
VRB    - VARIABLE WIND DIRECTION
PRES   - MEAN SEA LEVEL PRESSURE IN INCHES OF MERCURY
         F - FALLING PRESSURE   R - RISING PRESSURE
         S - STEADY PRESSURE
VSB    - VISIBILITY IN MILES
HX     - HEAT INDEX IN FAHRENHEIT
WCI    - WIND CHILL INDEX IN FAHRENHEIT
TC     - TEMPERATURE IN CELSIUS WHICH IS ALSO KNOWN AS
         TEMPERATURE IN CENTIGRADE
AFB    - AIR FORCE BASE
         LUKE AFB IS LUKE AIR FORCE BASE
         DAVIS-MONTHAN IS DAVIS-MONTHAN AIR FORCE BASE
NAS    - NAVAL AIR STATION
         EL CENTRO NAS IS EL CENTRO NAVAL AIR STATION
N/A    - NOT AVAILABLE




USA.gov is the U.S. government's official web portal to all federal, state and local government web resources and services.